#timestamp,LO_Frequency,Hit,StdDev 
1606852815.4,286047000.2,N
1606852835.3,286047001.5,N
1606852855.1,286047002.2,N
1606852875.9,286047005.9,N
1606852895.7,286047015.3,N
1606852915.5,286047021.0,Y
1606852935.4,286047025.2,P
1606852955.2,286047023.1,N
1606852975.0,286047026.1,N
1606852975.9,286047026.1,N
1606852995.8,286047034.4,Y
1606853015.6,286047016.7,P
1606853035.5,286047021.7,P
1606853055.3,286047025.8,P
1606853075.1,286047019.9,Y
1606853095.9,286046987.5,P
1606853115.7,286046985.4,N
1606853135.6,286046993.1,N
1606853155.4,286046991.2,N
1606853175.2,286046988.0,N
1606853195.1,286046987.4,N
1606853196.0,286046987.4,N
1606853215.8,286046993.0,N
1606853235.7,286046990.6,N
1606853255.5,286046996.1,N
1606853275.3,286046987.0,N
1606853295.2,286046985.0,N
1606853315.0,286046979.6,N
1606853315.9,286046979.6,N
1606853335.8,286046978.9,N
1606853355.6,286046969.9,Y
1606853375.4,286046980.3,P
1606853395.3,286046974.5,P
1606853415.1,286046977.2,P
1606853435.9,286046983.2,N
1606853455.7,286046983.1,Y
1606853475.5,286046999.7,P
1606853495.4,286046998.7,N
1606853515.2,286046998.6,N
1606853535.0,286046999.4,N
1606853535.9,286046999.4,N
1606853555.8,286046998.7,N
1606853575.6,286047007.3,N
1606853595.5,286047013.9,N
1606853615.3,286047011.5,N
1606853635.1,286047009.4,N
1606853655.9,286047011.7,N
1606853675.7,286047015.2,N
1606853695.6,286047013.7,N
1606853715.4,286047013.2,N
1606853735.2,286047012.6,N
1606853755.1,286047010.0,N
1606853756.0,286047010.0,N
1606853775.8,286047011.9,N
1606853795.7,286047011.4,N
1606853815.5,286047015.7,N
1606853835.3,286047024.8,N
1606853855.2,286047025.8,N
1606853875.0,286047028.1,N
1606853875.9,286047028.1,N
1606853895.8,286047034.4,Y
1606853915.6,286047027.3,P
1606853935.4,286047030.1,P
1606853955.3,286047038.5,P
1606853975.1,286047047.4,Y
1606853995.8,286047021.2,P
1606854015.7,286047015.8,P
1606854035.5,286047013.0,N
1606854055.4,286047013.5,N
1606854075.2,286047011.5,N
1606854095.0,286047009.4,N
1606854095.9,286047009.4,N
1606854115.8,286047012.1,N
1606854135.6,286047009.5,N
1606854155.4,286047006.5,N
1606854175.3,286047004.7,N
1606854195.1,286047000.0,N
1606854215.9,286046998.8,N
1606854235.7,286046997.1,N
1606854255.5,286046999.5,N
1606854275.4,286046998.5,N
1606854295.2,286046999.8,N
1606854315.0,286047002.3,N
1606854315.9,286047002.3,N
1606854335.8,286047005.3,N
1606854355.6,286046999.6,N
1606854375.5,286047004.4,N
1606854395.3,286047000.2,N
1606854415.1,286047000.5,N
1606854435.9,286046997.5,N
1606854455.7,286046997.6,N
1606854475.6,286046994.3,N
1606854495.4,286046991.5,N
1606854515.2,286046986.6,N
1606854535.1,286046982.5,N
1606854536.0,286046982.5,N
1606854555.8,286046978.1,N
1606854575.7,286046974.5,N
1606854595.5,286046974.9,N
1606854615.3,286046973.5,N
1606854635.2,286046970.0,N
1606854655.0,286046972.3,N
1606854655.9,286046972.3,N
1606854675.8,286046972.9,N
1606854695.6,286046973.3,N
1606854715.4,286046974.8,N
1606854735.3,286046978.6,N
1606854755.1,286046978.9,N
1606854775.8,286046977.9,N
1606854795.7,286046977.1,N
1606854815.5,286046974.0,N
1606854835.4,286046970.8,N
1606854855.2,286046964.5,N
1606854875.0,286046960.1,Y
1606854875.9,286046960.1,P
1606854895.8,286046980.6,N
1606854915.6,286046982.5,N
1606854935.5,286046989.3,N
1606854955.3,286046992.7,N
1606854975.1,286046994.0,N
1606854995.9,286046991.9,N
1606855015.7,286046991.6,N
1606855035.5,286046986.9,N
1606855055.4,286046985.1,N
1606855075.2,286046978.7,N
1606855095.1,286046980.6,N
1606855096.0,286046980.6,N
1606855115.8,286046995.9,N
1606855135.6,286047009.2,N
1606855155.5,286047016.1,N
1606855175.3,286047021.1,N
1606855195.2,286047023.9,N
1606855215.9,286047029.4,N
1606855235.7,286047029.6,N
1606855255.6,286047029.2,N
1606855275.4,286047026.1,N
1606855295.2,286047029.2,N
1606855315.1,286047029.1,N
1606855316.0,286047029.1,N
1606855335.8,286047030.2,N
1606855355.7,286047031.4,N
1606855375.5,286047029.1,N
1606855395.3,286047026.6,N
1606855415.2,286047018.1,N
1606855435.0,286047012.0,N
1606855435.9,286047012.0,N
1606855455.8,286047020.2,N
1606855475.6,286047029.3,N
1606855495.4,286047029.3,N
1606855515.3,286047023.7,N
1606855535.1,286047024.7,N
1606855555.9,286047021.7,N
1606855575.7,286047019.4,N
1606855595.5,286047025.2,N
1606855615.4,286047024.0,N
1606855635.2,286047027.3,N
1606855655.0,286047030.0,N
1606855656.0,286047030.0,Y
1606855675.8,286047004.4,P
1606855695.6,286046995.0,N
1606855715.5,286046994.0,N
1606855735.3,286046987.8,N
1606855755.1,286046983.3,N
1606855775.9,286046989.8,N
1606855795.7,286046997.4,N
1606855815.6,286047005.3,N
1606855835.4,286047004.9,N
1606855855.2,286046995.2,N
1606855875.1,286046977.6,N
1606855876.0,286046977.6,N
1606855895.8,286046980.8,N
1606855915.6,286046987.9,N
1606855935.5,286046986.8,N
1606855955.3,286046974.0,N
1606855975.2,286046967.8,N
1606855995.9,286046970.2,N
1606856015.7,286046971.0,N
1606856035.6,286046977.5,N
1606856055.4,286046982.9,N
1606856075.2,286046989.9,N
1606856095.1,286046992.4,N
1606856096.0,286046992.4,N
1606856115.8,286046992.7,N
1606856135.7,286046991.1,N
1606856155.5,286046985.8,N
1606856175.3,286046991.6,N
1606856195.2,286046992.3,N
1606856215.0,286046993.8,N
1606856215.9,286046993.8,N
1606856235.8,286046990.3,N
1606856255.6,286046987.2,N
1606856275.4,286046980.0,N
1606856295.3,286046976.7,N
1606856315.1,286046972.9,N
1606856335.9,286046972.7,N
1606856355.7,286046978.7,N
1606856375.5,286046975.7,N
1606856395.4,286046974.1,Y
